| time (UTC) | temp C | wind direction | speed KPH | gust KPH | rain 1hr cm | rain 24hr cm | rain mn cm | humidity % | barometer mb |
| 20260509160652 | 10 | 159 | 3.2 | 3.2 | 0.00 | 0.71 | 0.71 | 95 | 1009.8 |
| 20260509160148 | 10 | 148 | 1.6 | 1.6 | 0.00 | 0.71 | 0.71 | 95 | 1009.7 |
| 20260509155644 | 10 | 181 | 4.8 | 9.7 | 0.18 | 0.71 | 0.71 | 95 | 1009.8 |
| 20260509155140 | 10 | 126 | 4.8 | 4.8 | 0.18 | 0.71 | 0.71 | 95 | 1009.7 |
| 20260509154636 | 10 | 171 | 4.8 | 8.0 | 0.00 | 0.69 | 0.69 | 95 | 1010.0 |
| 20260509154133 | 10 | 126 | 6.4 | 8.0 | 0.00 | 0.69 | 0.69 | 95 | 1010.0 |
| 20260509153630 | 10 | 159 | 6.4 | 8.0 | 0.00 | 0.69 | 0.69 | 95 | 1010.0 |
| 20260509153127 | 10 | 155 | 4.8 | 4.8 | 0.00 | 0.69 | 0.69 | 95 | 1010.0 |
| 20260509152623 | 10 | 138 | 11.3 | 12.9 | 0.00 | 0.69 | 0.69 | 95 | 1009.7 |
| 20260509152121 | 10 | 111 | 8.0 | 9.7 | 0.00 | 0.69 | 0.69 | 95 | 1009.7 |
| 20260509151617 | 10 | 155 | 8.0 | 9.7 | 0.00 | 0.69 | 0.69 | 95 | 1010.1 |
| 20260509151114 | 10 | 152 | 8.0 | 9.7 | 0.13 | 0.69 | 0.69 | 95 | 1010.1 |
| 20260509150612 | 10 | 171 | 8.0 | 11.3 | 0.13 | 0.69 | 0.69 | 95 | 1010.2 |
| 20260509150110 | 10 | 135 | 4.8 | 4.8 | 0.00 | 0.66 | 0.66 | 95 | 1010.5 |
| 20260509145605 | 10 | 141 | 8.0 | 9.7 | 0.00 | 0.66 | 0.66 | 95 | 1010.4 |
| 20260509145101 | 9 | 148 | 6.4 | 8.0 | 0.18 | 0.66 | 0.66 | 95 | 1010.4 |
| 20260509144558 | 9 | 94 | 8.0 | 9.7 | 0.18 | 0.66 | 0.66 | 95 | 1010.4 |
| 20260509144055 | 9 | 141 | 6.4 | 9.7 | 0.00 | 0.64 | 0.64 | 95 | 1010.4 |
| 20260509143552 | 9 | 114 | 6.4 | 8.0 | 0.00 | 0.64 | 0.64 | 95 | 1010.4 |
| 20260509143050 | 9 | 167 | 3.2 | 3.2 | 0.13 | 0.64 | 0.64 | 95 | 1010.5 |
| 20260509142545 | 9 | 141 | 4.8 | 4.8 | 0.13 | 0.64 | 0.64 | 95 | 1010.6 |
| 20260509142041 | 9 | 168 | 1.6 | 3.2 | 0.00 | 0.61 | 0.61 | 95 | 1010.7 |
| 20260509141538 | 9 | 134 | 3.2 | 4.8 | 0.18 | 0.61 | 0.61 | 95 | 1010.6 |
| 20260509141035 | 9 | 142 | 4.8 | 8.0 | 0.18 | 0.61 | 0.61 | 95 | 1010.6 |
| 20260509140531 | 9 | 121 | 4.8 | 4.8 | 0.00 | 0.58 | 0.58 | 95 | 1010.8 |
| 20260509140029 | 9 | 140 | 4.8 | 8.0 | 0.00 | 0.58 | 0.58 | 95 | 1010.7 |
| 20260509135526 | 9 | 111 | 4.8 | 4.8 | 0.13 | 0.58 | 0.58 | 95 | 1010.7 |
| 20260509135023 | 9 | 158 | 4.8 | 8.0 | 0.13 | 0.58 | 0.58 | 95 | 1010.7 |
| 20260509134521 | 9 | 123 | 9.7 | 11.3 | 0.18 | 0.56 | 0.56 | 95 | 1010.6 |
| 20260509134018 | 8 | 182 | 6.4 | 8.0 | 0.18 | 0.56 | 0.56 | 95 | 1010.5 |
| 20260509133514 | 8 | 147 | 3.2 | 3.2 | 0.00 | 0.53 | 0.53 | 95 | 1010.7 |
| 20260509133013 | 8 | 140 | 3.2 | 3.2 | 0.13 | 0.53 | 0.53 | 95 | 1010.7 |
| 20260509132511 | 8 | 138 | 3.2 | 3.2 | 0.13 | 0.53 | 0.53 | 95 | 1010.7 |
| 20260509132008 | 8 | 119 | 4.8 | 4.8 | 0.18 | 0.51 | 0.51 | 95 | 1010.8 |
| 20260509131505 | 8 | 165 | 0.0 | 0.0 | 0.18 | 0.51 | 0.51 | 95 | 1010.8 |
| 20260509131001 | 8 | 162 | 1.6 | 1.6 | 0.00 | 0.48 | 0.48 | 95 | 1010.8 |
| 20260509130456 | 8 | 172 | 0.0 | 1.6 | 0.00 | 0.48 | 0.48 | 95 | 1010.7 |
| 20260509125954 | 8 | 150 | 1.6 | 1.6 | 0.18 | 0.48 | 0.48 | 95 | 1010.8 |
| 20260509125450 | 8 | 154 | 0.0 | 0.0 | 0.30 | 0.48 | 0.48 | 95 | 1010.9 |
| 20260509124946 | 8 | 149 | 1.6 | 3.2 | 0.13 | 0.46 | 0.46 | 95 | 1011.0 |
| 20260509124444 | 8 | 128 | 0.0 | 0.0 | 0.18 | 0.43 | 0.43 | 95 | 1011.0 |
| 20260509123941 | 7 | 185 | 1.6 | 1.6 | 0.00 | 0.41 | 0.41 | 95 | 1011.0 |
| 20260509123438 | 7 | 169 | 0.0 | 0.0 | 0.13 | 0.41 | 0.41 | 94 | 1011.1 |
| 20260509122934 | 7 | 170 | 0.0 | 0.0 | 0.30 | 0.41 | 0.41 | 94 | 1011.1 |
| 20260509122431 | 7 | 169 | 0.0 | 0.0 | 0.18 | 0.38 | 0.38 | 94 | 1011.0 |
| 20260509121927 | 7 | 180 | 1.6 | 1.6 | 0.00 | 0.36 | 0.36 | 94 | 1011.1 |
| 20260509121425 | 7 | 162 | 0.0 | 0.0 | 0.13 | 0.36 | 0.36 | 94 | 1011.1 |
| 20260509120923 | 7 | 164 | 0.0 | 0.0 | 0.13 | 0.36 | 0.36 | 94 | 1011.1 |
| 20260509120420 | 7 | 151 | 0.0 | 1.6 | 0.18 | 0.33 | 0.33 | 94 | 1011.3 |
| 20260509115918 | 7 | 152 | 0.0 | 0.0 | 0.30 | 0.33 | 0.33 | 94 | 1011.3 |
| 20260509115415 | 7 | 132 | 1.6 | 1.6 | 0.30 | 0.30 | 0.30 | 94 | 1011.2 |
| 20260509114913 | 7 | 153 | 0.0 | 0.0 | 0.30 | 0.28 | 0.28 | 94 | 1011.2 |
| 20260509114411 | 7 | 161 | 0.0 | 0.0 | 0.30 | 0.25 | 0.25 | 94 | 1011.1 |
| 20260509113911 | 7 | 171 | 0.0 | 0.0 | 0.30 | 0.23 | 0.23 | 94 | 1011.2 |
| 20260509113408 | 6 | 173 | 0.0 | 0.0 | 0.30 | 0.20 | 0.20 | 94 | 1011.0 |
| 20260509112903 | 6 | 175 | 0.0 | 0.0 | 0.36 | 0.18 | 0.18 | 93 | 1011.1 |
| 20260509112401 | 6 | 181 | 0.0 | 0.0 | 0.18 | 0.15 | 0.15 | 93 | 1011.1 |
| 20260509111858 | 7 | 196 | 1.6 | 1.6 | 0.30 | 0.13 | 0.13 | 93 | 1011.0 |
| 20260509111354 | 7 | 162 | 1.6 | 1.6 | 0.30 | 0.10 | 0.10 | 94 | 1011.0 |
| 20260509110853 | 7 | 135 | 3.2 | 3.2 | 0.13 | 0.08 | 0.08 | 94 | 1011.0 |
| 20260509110348 | 7 | 143 | 1.6 | 1.6 | 0.18 | 0.05 | 0.05 | 93 | 1011.0 |
| 20260509105847 | 6 | 118 | 0.0 | 0.0 | 0.18 | 0.05 | 0.05 | 93 | 1010.9 |
| 20260509105345 | 6 | 148 | 0.0 | 0.0 | 0.00 | 0.03 | 0.03 | 93 | 1010.9 |
| 20260509104841 | 5 | 155 | 0.0 | 0.0 | 0.00 | 0.03 | 0.03 | 93 | 1011.0 |
| 20260509104338 | 5 | 155 | 0.0 | 0.0 | 0.00 | 0.03 | 0.03 | 92 | 1011.0 |
| 20260509103836 | 5 | 153 | 0.0 | 0.0 | 0.00 | 0.03 | 0.03 | 92 | 1010.9 |
| 20260509103333 | 5 | 153 | 0.0 | 0.0 | 0.00 | 0.03 | 0.03 | 92 | 1010.8 |
| 20260509102832 | 5 | 157 | 0.0 | 0.0 | 0.00 | 0.03 | 0.03 | 92 | 1011.0 |
| 20260509102328 | 5 | 173 | 0.0 | 0.0 | 0.00 | 0.03 | 0.03 | 92 | 1011.0 |
| 20260509101824 | 5 | 175 | 0.0 | 0.0 | 0.00 | 0.03 | 0.03 | 92 | 1010.9 |
| 20260509101320 | 5 | 174 | 1.6 | 1.6 | 0.00 | 0.03 | 0.03 | 92 | 1011.0 |
| 20260509100818 | 5 | 152 | 0.0 | 0.0 | 0.00 | 0.03 | 0.03 | 92 | 1010.7 |
| 20260509100315 | 5 | 122 | 3.2 | 3.2 | 0.00 | 0.03 | 0.03 | 92 | 1010.9 |
| 20260509095812 | 5 | 148 | 1.6 | 3.2 | 0.00 | 0.03 | 0.03 | 91 | 1011.0 |
| 20260509095309 | 5 | 155 | 0.0 | 0.0 | 0.00 | 0.03 | 0.03 | 91 | 1011.0 |
| 20260509094806 | 5 | 155 | 0.0 | 0.0 | 0.00 | 0.03 | 0.03 | 91 | 1010.9 |
| 20260509094303 | 5 | 154 | 0.0 | 0.0 | 0.00 | 0.03 | 0.03 | 91 | 1010.8 |
| 20260509093801 | 5 | 144 | 0.0 | 0.0 | 0.00 | 0.03 | 0.03 | 91 | 1011.0 |
| 20260509093258 | 5 | 131 | 1.6 | 3.2 | 0.13 | 0.03 | 0.03 | 91 | 1011.0 |
| 20260509092756 | 5 | 167 | 0.0 | 0.0 | 0.13 | 0.03 | 0.03 | 91 | 1011.1 |
| 20260509092254 | 5 | 164 | 0.0 | 1.6 | 0.00 | 0.00 | 0.00 | 91 | 1011.1 |
| 20260509091751 | 5 | 140 | 0.0 | 0.0 | 0.00 | 0.00 | 0.00 | 91 | 1010.9 |
| 20260509091248 | 5 | 144 | 1.6 | 3.2 | 0.00 | 0.00 | 0.00 | 91 | 1011.1 |
| 20260509090745 | 5 | 146 | 1.6 | 1.6 | 0.00 | 0.00 | 0.00 | 90 | 1011.1 |
| 20260509090242 | 4 | 156 | 0.0 | 0.0 | 0.00 | 0.00 | 0.00 | 90 | 1011.2 |
| 20260509085740 | 4 | 155 | 0.0 | 0.0 | 0.00 | 0.00 | 0.00 | 90 | 1011.0 |
| 20260509085237 | 4 | 144 | 0.0 | 0.0 | 0.00 | 0.00 | 0.00 | 90 | 1011.1 |
| 20260509084733 | 4 | 148 | 0.0 | 0.0 | 0.00 | 0.00 | 0.00 | 90 | 1011.1 |
| 20260509084230 | 4 | 170 | 1.6 | 1.6 | 0.00 | 0.00 | 0.00 | 90 | 1011.1 |
| 20260509083728 | 4 | 174 | 1.6 | 3.2 | 0.00 | 0.00 | 0.00 | 90 | 1011.3 |
| 20260509083225 | 4 | 147 | 1.6 | 1.6 | 0.00 | 0.00 | 0.00 | 90 | 1011.3 |
| 20260509082721 | 4 | 130 | 3.2 | 3.2 | 0.00 | 0.00 | 0.00 | 90 | 1011.4 |
| 20260509082218 | 4 | 131 | 3.2 | 3.2 | 0.00 | 0.00 | 0.00 | 90 | 1011.6 |
| 20260509081715 | 4 | 161 | 0.0 | 0.0 | 0.00 | 0.00 | 0.00 | 90 | 1011.7 |
| 20260509081212 | 4 | 155 | 1.6 | 1.6 | 0.00 | 0.00 | 0.00 | 90 | 1011.5 |
| 20260509080711 | 4 | 155 | 0.0 | 0.0 | 0.00 | 0.00 | 0.00 | 90 | 1011.7 |
| 20260509080208 | 4 | 176 | 0.0 | 0.0 | 0.00 | 0.00 | 0.00 | 90 | 1011.6 |
| 20260509075706 | 4 | 176 | 0.0 | 0.0 | 0.00 | 0.00 | 0.00 | 90 | 1011.8 |
| 20260509075203 | 4 | 176 | 0.0 | 0.0 | 0.00 | 0.00 | 0.00 | 90 | 1011.5 |
| 20260509074700 | 4 | 176 | 0.0 | 0.0 | 0.00 | 0.00 | 0.00 | 90 | 1011.5 |
| 20260509074157 | 4 | 176 | 0.0 | 0.0 | 0.00 | 0.00 | 0.00 | 90 | 1011.4 |
| 20260509073654 | 4 | 176 | 0.0 | 0.0 | 0.00 | 0.00 | 0.00 | 89 | 1011.7 |
| 20260509073149 | 4 | 176 | 0.0 | 0.0 | 0.00 | 0.00 | 0.00 | 89 | 1011.7 |
| 20260509072647 | 4 | 176 | 0.0 | 0.0 | 0.00 | 0.00 | 0.00 | 89 | 1011.6 |
| 20260509072143 | 4 | 176 | 0.0 | 0.0 | 0.00 | 0.00 | 0.00 | 89 | 1011.6 |
| 20260509071640 | 4 | 176 | 0.0 | 0.0 | 0.00 | 0.00 | 0.00 | 89 | 1011.7 |
| 20260509071137 | 3 | 176 | 0.0 | 0.0 | 0.00 | 0.00 | 0.00 | 89 | 1011.6 |
| 20260509070634 | 3 | 176 | 0.0 | 0.0 | 0.00 | 0.00 | 0.00 | 89 | 1011.5 |
| 20260509070131 | 3 | 176 | 0.0 | 0.0 | 0.00 | 0.00 | 0.00 | 89 | 1011.5 |
| 20260509065626 | 3 | 176 | 0.0 | 0.0 | 0.00 | 0.00 | 0.00 | 89 | 1011.5 |
| 20260509065123 | 3 | 176 | 1.6 | 1.6 | 0.00 | 0.00 | 0.00 | 89 | 1011.5 |
| 20260509064620 | 4 | 176 | 0.0 | 0.0 | 0.00 | 0.00 | 0.00 | 89 | 1011.7 |
| 20260509064118 | 3 | 176 | 0.0 | 0.0 | 0.00 | 0.00 | 0.00 | 89 | 1011.8 |
| 20260509063614 | 4 | 176 | 1.6 | 1.6 | 0.00 | 0.00 | 0.00 | 89 | 1011.7 |
| 20260509063111 | 4 | 176 | 0.0 | 0.0 | 0.00 | 0.00 | 0.00 | 88 | 1011.8 |
| 20260509062608 | 4 | 176 | 0.0 | 0.0 | 0.00 | 0.00 | 0.00 | 88 | 1011.9 |
| 20260509062105 | 4 | 176 | 0.0 | 0.0 | 0.00 | 0.00 | 0.00 | 88 | 1011.8 |
| 20260509061602 | 3 | 176 | 0.0 | 0.0 | 0.00 | 0.00 | 0.00 | 88 | 1012.1 |
| 20260509061059 | 3 | 176 | 0.0 | 0.0 | 0.00 | 0.00 | 0.00 | 88 | 1012.2 |
| 20260509060557 | 3 | 176 | 1.6 | 1.6 | 0.00 | 0.00 | 0.00 | 88 | 1012.2 |
| 20260509060052 | 3 | 176 | 1.6 | 1.6 | 0.00 | 0.00 | 0.00 | 88 | 1012.1 |
| 20260509055548 | 3 | 176 | 0.0 | 0.0 | 0.00 | 0.00 | 0.00 | 88 | 1012.2 |
| 20260509055044 | 3 | 177 | 0.0 | 0.0 | 0.00 | 0.00 | 0.00 | 88 | 1012.3 |
| 20260509054541 | 3 | 177 | 0.0 | 0.0 | 0.00 | 0.00 | 0.00 | 88 | 1012.3 |
| 20260509054039 | 3 | 177 | 0.0 | 0.0 | 0.00 | 0.00 | 0.00 | 87 | 1012.2 |
| 20260509053538 | 3 | 177 | 0.0 | 0.0 | 0.00 | 0.00 | 0.00 | 87 | 1012.3 |
| 20260509053034 | 3 | 177 | 0.0 | 0.0 | 0.00 | 0.00 | 0.00 | 87 | 1012.2 |
| 20260509052532 | 3 | 177 | 0.0 | 0.0 | 0.00 | 0.00 | 0.00 | 87 | 1012.2 |
| 20260509052030 | 3 | 178 | 0.0 | 0.0 | 0.00 | 0.00 | 0.00 | 87 | 1012.2 |
| 20260509051527 | 3 | 179 | 0.0 | 0.0 | 0.00 | 0.00 | 0.00 | 87 | 1012.4 |
| 20260509051024 | 3 | 177 | 0.0 | 1.6 | 0.00 | 0.00 | 0.00 | 87 | 1012.4 |
| 20260509050521 | 3 | 166 | 1.6 | 1.6 | 0.00 | 0.00 | 0.00 | 87 | 1012.5 |
| 20260509050017 | 3 | 175 | 0.0 | 0.0 | 0.00 | 0.00 | 0.00 | 87 | 1012.3 |
| 20260509045515 | 3 | 158 | 0.0 | 0.0 | 0.00 | 0.00 | 0.00 | 87 | 1012.1 |
| 20260509045012 | 3 | 138 | 1.6 | 1.6 | 0.00 | 0.00 | 0.00 | 87 | 1012.6 |
| 20260509044509 | 3 | 147 | 1.6 | 1.6 | 0.00 | 0.00 | 0.00 | 87 | 1012.6 |
| 20260509044007 | 3 | 148 | 0.0 | 0.0 | 0.00 | 0.00 | 0.00 | 86 | 1012.4 |
| 20260509043502 | 3 | 149 | 0.0 | 0.0 | 0.00 | 0.00 | 0.00 | 86 | 1012.7 |
| 20260509042957 | 3 | 148 | 0.0 | 0.0 | 0.00 | 0.00 | 0.00 | 86 | 1012.4 |
| 20260509042455 | 3 | 148 | 0.0 | 0.0 | 0.00 | 0.00 | 0.00 | 86 | 1012.6 |
| 20260509041950 | 3 | 149 | 0.0 | 0.0 | 0.00 | 0.00 | 0.00 | 86 | 1012.5 |
| 20260509041448 | 3 | 150 | 1.6 | 1.6 | 0.00 | 0.00 | 0.00 | 86 | 1012.4 |
| 20260509040946 | 3 | 152 | 0.0 | 0.0 | 0.00 | 0.00 | 0.00 | 85 | 1012.9 |
| 20260509040444 | 3 | 152 | 0.0 | 0.0 | 0.00 | 0.00 | 0.00 | 85 | 1012.6 |
| 20260509035940 | 3 | 152 | 0.0 | 0.0 | 0.00 | 0.18 | 0.18 | 85 | 1012.7 |
| 20260509035437 | 3 | 151 | 0.0 | 0.0 | 0.00 | 0.18 | 0.18 | 84 | 1012.7 |
| 20260509034933 | 3 | 174 | 0.0 | 0.0 | 0.00 | 0.18 | 0.18 | 84 | 1012.5 |
| 20260509034431 | 3 | 176 | 1.6 | 1.6 | 0.00 | 0.18 | 0.18 | 84 | 1012.5 |
| 20260509033928 | 3 | 66 | 4.8 | 4.8 | 0.00 | 0.18 | 0.18 | 84 | 1012.6 |
| 20260509033425 | 3 | 100 | 3.2 | 3.2 | 0.00 | 0.18 | 0.18 | 83 | 1012.6 |
| 20260509032922 | 3 | 187 | 0.0 | 0.0 | 0.00 | 0.18 | 0.18 | 83 | 1012.5 |
| 20260509032420 | 3 | 191 | 1.6 | 1.6 | 0.00 | 0.18 | 0.18 | 82 | 1012.4 |
| 20260509031917 | 4 | 151 | 0.0 | 0.0 | 0.00 | 0.18 | 0.18 | 82 | 1012.5 |
| 20260509031414 | 4 | 152 | 0.0 | 0.0 | 0.00 | 0.18 | 0.18 | 82 | 1012.6 |
| 20260509030911 | 4 | 151 | 1.6 | 1.6 | 0.00 | 0.18 | 0.18 | 81 | 1012.8 |
| 20260509030410 | 3 | 174 | 0.0 | 0.0 | 0.00 | 0.18 | 0.18 | 80 | 1012.8 |
| 20260509025907 | 4 | 111 | 1.6 | 3.2 | 0.00 | 0.18 | 0.18 | 80 | 1012.6 |
| 20260509025402 | 4 | 153 | 1.6 | 1.6 | 0.00 | 0.18 | 0.18 | 79 | 1012.7 |
| 20260509024857 | 4 | 106 | 3.2 | 3.2 | 0.00 | 0.18 | 0.18 | 79 | 1012.7 |
| 20260509024353 | 4 | 117 | 1.6 | 1.6 | 0.00 | 0.18 | 0.18 | 78 | 1012.7 |
| 20260509023851 | 5 | 132 | 1.6 | 1.6 | 0.00 | 0.18 | 0.18 | 77 | 1012.7 |
| 20260509023348 | 5 | 110 | 3.2 | 3.2 | 0.00 | 0.18 | 0.18 | 77 | 1012.7 |
| 20260509022844 | 5 | 134 | 1.6 | 1.6 | 0.00 | 0.18 | 0.18 | 76 | 1012.7 |
| 20260509022342 | 5 | 131 | 1.6 | 1.6 | 0.00 | 0.18 | 0.18 | 76 | 1012.7 |
| 20260509021838 | 5 | 140 | 0.0 | 0.0 | 0.00 | 0.18 | 0.18 | 75 | 1012.6 |
| 20260509021336 | 5 | 111 | 3.2 | 3.2 | 0.00 | 0.18 | 0.18 | 75 | 1012.6 |
| 20260509020833 | 6 | 106 | 3.2 | 3.2 | 0.00 | 0.18 | 0.18 | 75 | 1012.8 |
| 20260509020332 | 6 | 139 | 1.6 | 3.2 | 0.00 | 0.18 | 0.18 | 74 | 1012.7 |
| 20260509015828 | 6 | 165 | 0.0 | 0.0 | 0.00 | 0.18 | 0.18 | 74 | 1012.7 |
| 20260509015327 | 6 | 163 | 0.0 | 0.0 | 0.00 | 0.18 | 0.18 | 74 | 1012.8 |
| 20260509014823 | 6 | 179 | 1.6 | 1.6 | 0.00 | 0.18 | 0.18 | 73 | 1012.4 |
| 20260509014320 | 7 | 140 | 1.6 | 1.6 | 0.00 | 0.18 | 0.18 | 73 | 1012.4 |
| 20260509013817 | 7 | 141 | 1.6 | 1.6 | 0.00 | 0.18 | 0.18 | 73 | 1012.4 |
| 20260509013313 | 7 | 139 | 1.6 | 3.2 | 0.00 | 0.18 | 0.18 | 74 | 1012.5 |
| 20260509012809 | 7 | 145 | 0.0 | 0.0 | 0.00 | 0.18 | 0.18 | 74 | 1012.3 |
| 20260509012307 | 7 | 129 | 1.6 | 1.6 | 0.00 | 0.18 | 0.18 | 74 | 1012.2 |
| 20260509011803 | 7 | 142 | 1.6 | 1.6 | 0.00 | 0.18 | 0.18 | 74 | 1012.4 |
| 20260509011301 | 7 | 155 | 0.0 | 1.6 | 0.00 | 0.18 | 0.18 | 73 | 1012.3 |
| 20260509010758 | 7 | 159 | 0.0 | 1.6 | 0.00 | 0.18 | 0.18 | 73 | 1012.3 |
| 20260509010255 | 7 | 162 | 0.0 | 0.0 | 0.00 | 0.18 | 0.18 | 72 | 1012.1 |
| 20260509005752 | 8 | 162 | 0.0 | 0.0 | 0.00 | 0.18 | 0.18 | 70 | 1012.0 |
| 20260509005250 | 8 | 161 | 1.6 | 1.6 | 0.00 | 0.18 | 0.18 | 68 | 1011.8 |
| 20260509004744 | 8 | 338 | 1.6 | 1.6 | 0.00 | 0.18 | 0.18 | 68 | 1011.7 |
| 20260509004241 | 8 | 113 | 3.2 | 3.2 | 0.00 | 0.18 | 0.18 | 69 | 1011.6 |
| 20260509003739 | 8 | 166 | 0.0 | 0.0 | 0.00 | 0.18 | 0.18 | 68 | 1011.7 |
| 20260509003236 | 8 | 166 | 0.0 | 0.0 | 0.00 | 0.18 | 0.18 | 67 | 1011.6 |
| 20260509002734 | 8 | 167 | 0.0 | 0.0 | 0.00 | 0.18 | 0.18 | 67 | 1011.5 |
| 20260509002231 | 8 | 153 | 0.0 | 1.6 | 0.00 | 0.18 | 0.18 | 67 | 1011.5 |
| 20260509001729 | 8 | 128 | 1.6 | 1.6 | 0.00 | 0.18 | 0.18 | 66 | 1011.3 |
| 20260509001224 | 8 | 100 | 3.2 | 3.2 | 0.00 | 0.18 | 0.18 | 64 | 1011.3 |
| 20260509000723 | 8 | 58 | 3.2 | 3.2 | 0.00 | 0.18 | 0.18 | 63 | 1011.4 |
| 20260509000220 | 9 | 83 | 3.2 | 3.2 | 0.00 | 0.18 | 0.18 | 61 | 1011.4 |
| 20260508235716 | 10 | 92 | 3.2 | 3.2 | 0.00 | 0.18 | 0.18 | 58 | 1011.4 |
| 20260508235213 | 10 | 40 | 4.8 | 4.8 | 0.00 | 0.18 | 0.18 | 58 | 1011.3 |
| 20260508234711 | 10 | 109 | 1.6 | 1.6 | 0.00 | 0.18 | 0.18 | 56 | 1011.2 |
| 20260508234207 | 11 | 98 | 3.2 | 3.2 | 0.00 | 0.18 | 0.18 | 56 | 1011.1 |
| 20260508233706 | 11 | 72 | 3.2 | 3.2 | 0.00 | 0.18 | 0.18 | 51 | 1011.0 |
| 20260508233204 | 11 | 22 | 4.8 | 4.8 | 0.00 | 0.18 | 0.18 | 51 | 1011.0 |
| 20260508232701 | 12 | 343 | 4.8 | 4.8 | 0.00 | 0.18 | 0.18 | 49 | 1011.1 |
| 20260508232157 | 12 | 99 | 3.2 | 3.2 | 0.00 | 0.18 | 0.18 | 50 | 1011.1 |
| 20260508231655 | 12 | 212 | 3.2 | 3.2 | 0.00 | 0.18 | 0.18 | 47 | 1011.3 |
| 20260508231152 | 12 | 206 | 0.0 | 0.0 | 0.00 | 0.18 | 0.18 | 49 | 1011.1 |
| 20260508230649 | 12 | 275 | 1.6 | 3.2 | 0.00 | 0.18 | 0.18 | 49 | 1010.9 |
| 20260508230145 | 12 | 102 | 1.6 | 1.6 | 0.00 | 0.18 | 0.18 | 48 | 1011.2 |
| 20260508225643 | 12 | 229 | 1.6 | 1.6 | 0.00 | 0.18 | 0.18 | 49 | 1011.1 |
| 20260508225139 | 12 | 244 | 1.6 | 1.6 | 0.00 | 0.18 | 0.18 | 49 | 1010.8 |
| 20260508224637 | 12 | 48 | 6.4 | 8.0 | 0.00 | 0.18 | 0.18 | 49 | 1010.9 |
| 20260508224134 | 12 | 56 | 4.8 | 4.8 | 0.00 | 0.18 | 0.18 | 48 | 1011.0 |
| 20260508223632 | 12 | 279 | 6.4 | 9.7 | 0.00 | 0.18 | 0.18 | 47 | 1011.0 |
| 20260508223129 | 13 | 357 | 4.8 | 4.8 | 0.00 | 0.18 | 0.18 | 47 | 1010.9 |
| 20260508222626 | 12 | 40 | 3.2 | 3.2 | 0.00 | 0.18 | 0.18 | 47 | 1010.9 |
| 20260508222123 | 12 | 298 | 4.8 | 4.8 | 0.00 | 0.18 | 0.18 | 48 | 1011.0 |
| 20260508221619 | 12 | 5 | 4.8 | 8.0 | 0.00 | 0.18 | 0.18 | 49 | 1010.9 |
| 20260508221115 | 13 | 314 | 6.4 | 8.0 | 0.00 | 0.18 | 0.18 | 47 | 1011.0 |
| 20260508220612 | 13 | 327 | 8.0 | 9.7 | 0.00 | 0.18 | 0.18 | 46 | 1011.0 |
| 20260508220108 | 13 | 185 | 0.0 | 1.6 | 0.00 | 0.18 | 0.18 | 45 | 1011.1 |
| 20260508215605 | 12 | 183 | 1.6 | 1.6 | 0.00 | 0.18 | 0.18 | 46 | 1011.0 |
| 20260508215102 | 12 | 240 | 3.2 | 3.2 | 0.00 | 0.18 | 0.18 | 48 | 1011.2 |
| 20260508214559 | 12 | 101 | 3.2 | 3.2 | 0.00 | 0.18 | 0.18 | 49 | 1011.1 |
| 20260508214055 | 12 | 81 | 1.6 | 3.2 | 0.00 | 0.18 | 0.18 | 48 | 1011.2 |
| 20260508213553 | 12 | 28 | 4.8 | 4.8 | 0.00 | 0.18 | 0.18 | 49 | 1011.1 |
| 20260508213048 | 12 | 116 | 3.2 | 3.2 | 0.00 | 0.18 | 0.18 | 48 | 1011.1 |
| 20260508212545 | 13 | 283 | 6.4 | 8.0 | 0.00 | 0.18 | 0.18 | 46 | 1011.1 |
| 20260508212042 | 13 | 260 | 3.2 | 3.2 | 0.00 | 0.18 | 0.18 | 46 | 1011.3 |
| 20260508211537 | 12 | 190 | 3.2 | 3.2 | 0.00 | 0.18 | 0.18 | 46 | 1011.0 |
| 20260508211034 | 13 | 11 | 6.4 | 8.0 | 0.00 | 0.18 | 0.18 | 47 | 1011.2 |
| 20260508210530 | 12 | 313 | 4.8 | 4.8 | 0.00 | 0.18 | 0.18 | 47 | 1011.1 |
| 20260508210028 | 13 | 233 | 3.2 | 4.8 | 0.00 | 0.18 | 0.18 | 46 | 1011.4 |
| 20260508205525 | 13 | 25 | 8.0 | 9.7 | 0.00 | 0.18 | 0.18 | 47 | 1011.4 |
| 20260508205021 | 12 | 310 | 3.2 | 3.2 | 0.00 | 0.18 | 0.18 | 48 | 1011.2 |
| 20260508204518 | 12 | 209 | 4.8 | 4.8 | 0.00 | 0.18 | 0.18 | 47 | 1011.5 |
| 20260508204014 | 12 | 298 | 6.4 | 9.7 | 0.00 | 0.18 | 0.18 | 47 | 1011.4 |
| 20260508203510 | 13 | 301 | 8.0 | 11.3 | 0.00 | 0.18 | 0.18 | 45 | 1011.6 |
| 20260508203006 | 12 | 264 | 4.8 | 8.0 | 0.00 | 0.18 | 0.18 | 48 | 1011.7 |
| 20260508202503 | 13 | 121 | 1.6 | 3.2 | 0.00 | 0.18 | 0.18 | 49 | 1011.8 |
| 20260508202000 | 13 | 291 | 9.7 | 12.9 | 0.00 | 0.18 | 0.18 | 46 | 1011.6 |
| 20260508201456 | 12 | 270 | 6.4 | 8.0 | 0.00 | 0.18 | 0.18 | 49 | 1011.7 |
| 20260508200953 | 12 | 167 | 0.0 | 1.6 | 0.00 | 0.18 | 0.18 | 49 | 1011.7 |
| 20260508200450 | 12 | 194 | 3.2 | 3.2 | 0.00 | 0.18 | 0.18 | 52 | 1012.0 |
| 20260508195945 | 11 | 13 | 6.4 | 9.7 | 0.00 | 0.18 | 0.18 | 53 | 1012.2 |
| 20260508195443 | 12 | 298 | 6.4 | 8.0 | 0.00 | 0.18 | 0.18 | 53 | 1012.0 |
| 20260508194939 | 11 | 276 | 9.7 | 12.9 | 0.00 | 0.18 | 0.18 | 53 | 1012.0 |
| 20260508194436 | 11 | 347 | 6.4 | 8.0 | 0.00 | 0.18 | 0.18 | 55 | 1011.9 |
| 20260508193933 | 11 | 189 | 3.2 | 4.8 | 0.00 | 0.18 | 0.18 | 56 | 1012.2 |
| 20260508193430 | 11 | 226 | 8.0 | 9.7 | 0.00 | 0.18 | 0.18 | 54 | 1012.3 |
| 20260508192926 | 11 | 309 | 9.7 | 14.5 | 0.00 | 0.18 | 0.18 | 55 | 1012.5 |
| 20260508192423 | 11 | 328 | 8.0 | 11.3 | 0.00 | 0.18 | 0.18 | 57 | 1012.4 |
| 20260508191920 | 11 | 235 | 3.2 | 3.2 | 0.00 | 0.18 | 0.18 | 56 | 1012.5 |
| 20260508191417 | 11 | 4 | 3.2 | 4.8 | 0.00 | 0.18 | 0.18 | 57 | 1012.4 |
| 20260508190914 | 10 | 240 | 1.6 | 4.8 | 0.00 | 0.18 | 0.18 | 60 | 1012.5 |
| 20260508190411 | 10 | 305 | 8.0 | 11.3 | 0.00 | 0.18 | 0.18 | 58 | 1012.6 |
| 20260508185907 | 10 | 13 | 14.5 | 22.5 | 0.00 | 0.18 | 0.18 | 58 | 1012.6 |
| 20260508185405 | 11 | 273 | 4.8 | 9.7 | 0.00 | 0.18 | 0.18 | 58 | 1012.8 |
| 20260508184901 | 10 | 239 | 8.0 | 9.7 | 0.00 | 0.18 | 0.18 | 60 | 1012.8 |
| 20260508184359 | 10 | 298 | 11.3 | 14.5 | 0.00 | 0.18 | 0.18 | 60 | 1012.8 |
| 20260508183850 | 10 | 335 | 6.4 | 9.7 | 0.00 | 0.18 | 0.18 | 60 | 1012.7 |
| 20260508183346 | 10 | 291 | 9.7 | 12.9 | 0.00 | 0.18 | 0.18 | 60 | 1012.8 |
| 20260508182842 | 11 | 327 | 6.4 | 11.3 | 0.00 | 0.18 | 0.18 | 59 | 1012.9 |
| 20260508182339 | 10 | 182 | 0.0 | 0.0 | 0.00 | 0.18 | 0.18 | 65 | 1012.9 |
| 20260508181835 | 9 | 228 | 4.8 | 8.0 | 0.00 | 0.18 | 0.18 | 64 | 1012.9 |
| 20260508181332 | 10 | 156 | 0.0 | 0.0 | 0.00 | 0.18 | 0.18 | 65 | 1013.0 |
| 20260508180829 | 10 | 231 | 6.4 | 9.7 | 0.00 | 0.18 | 0.18 | 67 | 1013.1 |
| 20260508180326 | 9 | 273 | 6.4 | 9.7 | 0.00 | 0.18 | 0.18 | 68 | 1013.1 |
| 20260508175822 | 9 | 190 | 0.0 | 0.0 | 0.00 | 0.18 | 0.18 | 71 | 1013.3 |
| 20260508175318 | 8 | 161 | 0.0 | 0.0 | 0.00 | 0.18 | 0.18 | 73 | 1013.0 |
| 20260508174817 | 8 | 157 | 3.2 | 3.2 | 0.00 | 0.18 | 0.18 | 71 | 1013.0 |
| 20260508174314 | 8 | 192 | 1.6 | 1.6 | 0.00 | 0.18 | 0.18 | 72 | 1013.0 |
| 20260508173810 | 8 | 197 | 0.0 | 0.0 | 0.00 | 0.18 | 0.18 | 73 | 1013.4 |
| 20260508173307 | 7 | 345 | 4.8 | 4.8 | 0.00 | 0.18 | 0.18 | 73 | 1013.1 |
| 20260508172803 | 8 | 222 | 3.2 | 3.2 | 0.00 | 0.18 | 0.18 | 73 | 1013.5 |
| 20260508172300 | 8 | 232 | 3.2 | 3.2 | 0.00 | 0.18 | 0.18 | 72 | 1013.4 |
| 20260508171756 | 8 | 210 | 1.6 | 4.8 | 0.00 | 0.18 | 0.18 | 72 | 1013.3 |
| 20260508171253 | 8 | 176 | 0.0 | 1.6 | 0.00 | 0.18 | 0.18 | 72 | 1013.4 |
| 20260508170750 | 8 | 267 | 4.8 | 4.8 | 0.00 | 0.18 | 0.18 | 73 | 1013.4 |
| 20260508170248 | 8 | 131 | 1.6 | 1.6 | 0.00 | 0.18 | 0.18 | 75 | 1013.4 |
| 20260508165744 | 8 | 181 | 4.8 | 4.8 | 0.00 | 0.18 | 0.18 | 76 | 1013.4 |
| 20260508165242 | 7 | 98 | 0.0 | 1.6 | 0.00 | 0.18 | 0.18 | 79 | 1013.3 |
| 20260508164738 | 7 | 51 | 1.6 | 3.2 | 0.00 | 0.18 | 0.18 | 83 | 1013.4 |
| 20260508164234 | 6 | 195 | 4.8 | 8.0 | 0.00 | 0.18 | 0.18 | 85 | 1013.5 |
| 20260508163733 | 6 | 165 | 1.6 | 1.6 | 0.00 | 0.18 | 0.18 | 88 | 1013.6 |
| 20260508163230 | 6 | 185 | 3.2 | 3.2 | 0.00 | 0.18 | 0.18 | 89 | 1013.5 |
| 20260508162725 | 5 | 219 | 4.8 | 4.8 | 0.00 | 0.18 | 0.18 | 89 | 1013.7 |
| 20260508162223 | 5 | 183 | 3.2 | 3.2 | 0.00 | 0.18 | 0.18 | 90 | 1013.8 |
| 20260508161719 | 5 | 182 | 1.6 | 1.6 | 0.00 | 0.18 | 0.18 | 90 | 1014.0 |
| 20260508161217 | 4 | 141 | 0.0 | 1.6 | 0.00 | 0.18 | 0.18 | 90 | 1013.9 |